Weather History for Glenwood, MN

Change the Weather History Date:

Monday, October 28, 2013

  Actual Average Record
Temperature  
Mean Temperature 32 °F -  
Max Temperature 39 °F 54 °F 73 °F (1966)
Min Temperature 24 °F 31 °F 11 °F (1952)
Degree Days  
Heating Degree Days 34    
Moisture  
Dew Point 22 °F    
Average Humidity 70    
Maximum Humidity 86    
Minimum Humidity 45    
Precipitation  
Precipitation 0.00 in - - ()
Sea Level Pressure  
Sea Level Pressure 30.38 in    
Wind  
Wind Speed 13 mph (NE)    
Max Wind Speed 17 mph    
Max Gust Speed 22 mph    
Visibility 10 miles    
Events      
Averages and records for this station are not official NWS values.
T = Trace of Precipitation, MM = Missing Value Source: NWS Daily Summary

Daily Weather History Graph

Daily Weather History Graph

Search for Another Location

Airport:

Trip Planner

Search our weather history database for the weather conditions in past years. The results will help you decide how hot, cold, wet, or windy it might be!

Date:

Astronomy

Oct. 28, 2013 Rise Set
Actual Time 7:55 AM CDT 6:13 PM CDT
Civil Twilight 7:25 AM CDT 6:44 PM CDT
Nautical Twilight 6:50 AM CDT 7:19 PM CDT
Astronomical Twilight 6:15 AM CDT 7:53 PM CDT
Moon 1:32 AM CDT (10/28) 3:11 PM CDT (10/28)
Length of Visible Light 11h 19m
Length of Day
10h 17m
Waning Crescent, 34% of the Moon is Illuminated
Oct 28
Waning Crescent
Nov 3
New
Nov 9
First Quarter
Nov 17
Full
Nov 25
Last Quarter

Hourly Weather History & Observations

Time (CDT) Temp. Windchill Dew Point Humidity Pressure Visibility Wind Dir Wind Speed Gust Speed Precip Events Conditions
12:13 AM 35.6 °F 25.9 °F 28.4 °F 75% 30.18 in 10.0 mi NNE 16.1 mph 20.7 mph N/A   Clear
12:33 AM 33.8 °F 23.2 °F 26.6 °F 75% 30.20 in 10.0 mi NNE 17.3 mph 21.9 mph N/A   Clear
12:53 AM 33.8 °F 23.9 °F 26.6 °F 75% 30.21 in 10.0 mi NNE 15.0 mph 19.6 mph N/A   Clear
1:13 AM 33.8 °F 23.9 °F 26.6 °F 75% 30.22 in 10.0 mi NNE 15.0 mph - N/A   Clear
1:34 AM 32.0 °F 22.1 °F 26.6 °F 80% 30.23 in 10.0 mi NNE 13.8 mph 18.4 mph N/A   Clear
1:53 AM 32.0 °F 20.8 °F 26.6 °F 80% 30.24 in 10.0 mi NNE 17.3 mph 20.7 mph N/A   Clear
2:13 AM 32.0 °F 23.0 °F 26.6 °F 80% 30.25 in 10.0 mi NNE 11.5 mph - N/A   Clear
2:33 AM 30.2 °F 19.8 °F 26.6 °F 86% 30.26 in 10.0 mi NNE 13.8 mph 21.9 mph N/A   Clear
2:53 AM 30.2 °F 19.8 °F 26.6 °F 86% 30.27 in 10.0 mi NNE 13.8 mph - N/A   Clear
3:14 AM 30.2 °F 20.2 °F 26.6 °F 86% 30.28 in 10.0 mi NNE 12.7 mph - N/A   Clear
3:33 AM 28.4 °F 17.5 °F 24.8 °F 86% 30.28 in 10.0 mi NNE 13.8 mph - N/A   Clear
3:53 AM 28.4 °F 17.0 °F 24.8 °F 86% 30.29 in 10.0 mi NNE 15.0 mph - N/A   Clear
4:14 AM 28.4 °F 17.5 °F 24.8 °F 86% 30.30 in 10.0 mi NNE 13.8 mph - N/A   Clear
4:33 AM 28.4 °F 17.0 °F 24.8 °F 86% 30.31 in 10.0 mi NNE 15.0 mph 19.6 mph N/A   Clear
4:53 AM 28.4 °F 16.6 °F 23.0 °F 80% 30.32 in 10.0 mi NNE 16.1 mph - N/A   Clear
5:13 AM 28.4 °F 18.0 °F 23.0 °F 80% 30.33 in 10.0 mi NNE 12.7 mph - N/A   Clear
5:33 AM 28.4 °F 19.1 °F 23.0 °F 80% 30.34 in 10.0 mi NNE 10.4 mph 18.4 mph N/A   Clear
5:54 AM 26.6 °F 15.2 °F 23.0 °F 86% 30.35 in 10.0 mi NNE 13.8 mph - N/A   Clear
6:13 AM 26.6 °F 14.7 °F 23.0 °F 86% 30.36 in 10.0 mi NNE 15.0 mph 18.4 mph N/A   Clear
6:33 AM 26.6 °F 14.3 °F 23.0 °F 86% 30.36 in 10.0 mi NNE 16.1 mph - N/A   Clear
6:53 AM 26.6 °F 14.3 °F 23.0 °F 86% 30.37 in 10.0 mi NNE 16.1 mph - N/A   Clear
7:13 AM 26.6 °F 15.2 °F 23.0 °F 86% 30.38 in 10.0 mi NNE 13.8 mph 19.6 mph N/A   Clear
7:34 AM 24.8 °F 12.9 °F 21.2 °F 86% 30.39 in 10.0 mi NNE 13.8 mph - N/A   Clear
7:53 AM 24.8 °F 13.4 °F 21.2 °F 86% 30.40 in 10.0 mi NNE 12.7 mph - N/A   Clear
8:13 AM 24.8 °F 13.4 °F 21.2 °F 86% 30.41 in 10.0 mi NE 12.7 mph - N/A   Clear
8:33 AM 24.8 °F 14.0 °F 21.2 °F 86% 30.42 in 10.0 mi NE 11.5 mph - N/A   Clear
8:53 AM 26.6 °F 15.7 °F 21.2 °F 80% 30.43 in 10.0 mi NE 12.7 mph - N/A   Clear
9:13 AM 26.6 °F 16.2 °F 21.2 °F 80% 30.43 in 10.0 mi NE 11.5 mph - N/A   Clear
9:33 AM 28.4 °F 16.2 °F 21.2 °F 74% 30.43 in 10.0 mi NE 17.3 mph - N/A   Clear
9:53 AM 28.4 °F 16.6 °F 21.2 °F 74% 30.44 in 10.0 mi NE 16.1 mph - N/A   Clear
10:14 AM 30.2 °F 18.9 °F 21.2 °F 69% 30.44 in 10.0 mi ENE 16.1 mph - N/A   Clear
10:33 AM 32.0 °F 22.1 °F 21.2 °F 64% 30.44 in 10.0 mi ENE 13.8 mph - N/A   Clear
10:53 AM 33.8 °F 23.5 °F 21.2 °F 60% 30.44 in 10.0 mi ENE 16.1 mph 19.6 mph N/A   Clear
11:14 AM 33.8 °F 25.3 °F 21.2 °F 60% 30.44 in 10.0 mi ENE 11.5 mph - N/A   Clear
11:33 AM 33.8 °F 23.9 °F 21.2 °F 60% 30.45 in 10.0 mi ENE 15.0 mph - N/A   Clear
11:53 AM 35.6 °F 26.6 °F 21.2 °F 56% 30.45 in 10.0 mi ENE 13.8 mph 18.4 mph N/A   Clear
12:13 PM 35.6 °F 27.1 °F 21.2 °F 56% 30.45 in 10.0 mi ENE 12.7 mph - N/A   Clear
12:33 PM 37.4 °F 29.8 °F 21.2 °F 52% 30.45 in 10.0 mi ENE 11.5 mph 16.1 mph N/A   Clear
12:53 PM 37.4 °F 28.9 °F 21.2 °F 52% 30.44 in 10.0 mi East 13.8 mph 18.4 mph N/A   Clear
1:13 PM 37.4 °F 29.3 °F 21.2 °F 52% 30.44 in 10.0 mi ENE 12.7 mph 17.3 mph N/A   Clear
1:34 PM 37.4 °F 29.8 °F 21.2 °F 52% 30.43 in 10.0 mi NE 11.5 mph 17.3 mph N/A   Scattered Clouds
1:53 PM 37.4 °F 32.1 °F 21.2 °F 52% 30.43 in 10.0 mi NNE 6.9 mph - N/A   Clear
2:13 PM 37.4 °F 30.3 °F 21.2 °F 52% 30.42 in 10.0 mi NE 10.4 mph - N/A   Clear
2:33 PM 39.2 °F 33.0 °F 21.2 °F 49% 30.41 in 10.0 mi ENE 9.2 mph - N/A   Clear
2:53 PM 39.2 °F 31.2 °F 21.2 °F 49% 30.41 in 10.0 mi ENE 13.8 mph - N/A   Clear
3:14 PM 39.2 °F 33.0 °F 21.2 °F 49% 30.41 in 10.0 mi North 9.2 mph - N/A   Clear
3:33 PM 39.2 °F 32.0 °F 19.4 °F 45% 30.40 in 10.0 mi NE 11.5 mph - N/A   Clear
3:53 PM 39.2 °F 32.5 °F 21.2 °F 49% 30.41 in 10.0 mi NNE 10.4 mph - N/A   Clear
4:13 PM 37.4 °F 30.3 °F 19.4 °F 48% 30.40 in 10.0 mi NE 10.4 mph - N/A   Clear
4:33 PM 37.4 °F 29.8 °F 19.4 °F 48% 30.40 in 10.0 mi NE 11.5 mph - N/A   Clear
4:53 PM 37.4 °F 30.3 °F 21.2 °F 52% 30.41 in 10.0 mi ENE 10.4 mph - N/A   Clear
5:13 PM 37.4 °F 30.3 °F 19.4 °F 48% 30.40 in 10.0 mi ENE 10.4 mph - N/A   Clear
5:33 PM 37.4 °F 29.8 °F 19.4 °F 48% 30.40 in 10.0 mi NE 11.5 mph - N/A   Clear
5:53 PM 35.6 °F 28.0 °F 21.2 °F 56% 30.40 in 10.0 mi NE 10.4 mph - N/A   Clear
6:13 PM 33.8 °F 26.4 °F 21.2 °F 60% 30.39 in 10.0 mi NE 9.2 mph - N/A   Clear
6:33 PM 30.2 °F 22.6 °F 21.2 °F 69% 30.40 in 10.0 mi NE 8.1 mph - N/A   Clear
6:53 PM 30.2 °F 22.6 °F 21.2 °F 69% 30.40 in 10.0 mi ENE 8.1 mph - N/A   Clear
7:13 PM 30.2 °F 22.6 °F 21.2 °F 69% 30.40 in 10.0 mi NE 8.1 mph - N/A   Clear
7:33 PM 30.2 °F 22.6 °F 21.2 °F 69% 30.41 in 10.0 mi NE 8.1 mph - N/A   Clear
7:53 PM 28.4 °F 20.4 °F 21.2 °F 74% 30.41 in 10.0 mi NE 8.1 mph - N/A   Clear
8:13 PM 28.4 °F 20.4 °F 21.2 °F 74% 30.41 in 10.0 mi NE 8.1 mph - N/A   Clear
8:33 PM 28.4 °F 20.4 °F 21.2 °F 74% 30.41 in 10.0 mi ENE 8.1 mph - N/A   Clear
8:54 PM 28.4 °F 20.4 °F 21.2 °F 74% 30.40 in 10.0 mi NE 8.1 mph - N/A   Clear
9:13 PM 28.4 °F 20.4 °F 21.2 °F 74% 30.41 in 10.0 mi ENE 8.1 mph - N/A   Clear
9:33 PM 28.4 °F 20.4 °F 21.2 °F 74% 30.40 in 10.0 mi NE 8.1 mph - N/A   Clear
9:54 PM 28.4 °F 20.4 °F 21.2 °F 74% 30.40 in 10.0 mi ENE 8.1 mph - N/A   Clear
10:13 PM 28.4 °F 20.4 °F 21.2 °F 74% 30.39 in 10.0 mi NE 8.1 mph - N/A   Clear
10:33 PM 26.6 °F 18.2 °F 21.2 °F 80% 30.39 in 10.0 mi NE 8.1 mph - N/A   Clear
10:53 PM 26.6 °F 19.1 °F 21.2 °F 80% 30.40 in 10.0 mi NE 6.9 mph - N/A   Clear
11:13 PM 26.6 °F 19.1 °F 21.2 °F 80% 30.41 in 10.0 mi ENE 6.9 mph - N/A   Clear
11:33 PM 26.6 °F 20.0 °F 21.2 °F 80% 30.41 in 10.0 mi NE 5.8 mph - N/A   Clear
11:53 PM 26.6 °F 18.2 °F 21.2 °F 80% 30.41 in 10.0 mi NE 8.1 mph - N/A   Clear